Flag for U.S.A. Weather past 2 weeks in Wichita, Kansas, U.S.A.

Now
63 °F

Clear.


Feels Like: 63 °F
Forecast: 62 / 87 °F
Wind: 5 mph from South

Location: Wichita Mid-Continent Airport

Current Time: Oct 26, 2014 at 1:26:23 AM

Latest Report: Oct 26, 2014 at 12:53 AM


Visibility: 10 mi

Pressure: 29.90 "Hg

Humidity: 81%

Dew point: 57 °F

Location of WichitaLocation

Historic Weather in Wichita — Graph

°F

Wichita temperature yesterday

Maximum temperature yesterday: 90 °F (at 2:53 PM)
Minimum temperature yesterday: 52 °F (at 7:53 AM)
Average temperature yesterday: 69 °F

Past Weeks' High & Low Weather Summary

 TemperatureHumidityPressure
High90 °F (Oct 25, 2:53 PM)97% (Oct 25, 8:53 AM)30.25 "Hg (Oct 25, 8:53 AM)
Low42 °F (Oct 15, 7:53 AM)26% (Oct 14, 3:53 PM)29.58 "Hg (Oct 13, 4:53 AM)
Average61 °F66%29.98 "Hg
* Reported Oct 10 11:53 PM — Oct 25 11:53 PM, Wichita, Weather by CustomWeather, © 2014

Note: Actual official high and low records may vary slightly from our data, if they occured in-between our weather recording intervals... More about our weather records

Advertising

Wichita weather history for previous 24 hours

 ConditionsComfort  
Time TempWeatherWind HumidityBarometerVisibility
11:53 PM
Oct 25
65 °FClear.6 mph78%29.90 "Hg10 mi
10:53 PM69 °FClear.9 mph70%29.90 "Hg10 mi
9:53 PM71 °FClear.10 mph68%29.93 "Hg10 mi
8:53 PM72 °FClear.10 mph66%29.93 "Hg10 mi
7:53 PM73 °FClear.8 mph59%29.95 "Hg10 mi
6:53 PM76 °FSunny.8 mph52%29.95 "Hg10 mi
5:53 PM85 °FSunny.10 mph40%29.95 "Hg10 mi
4:53 PM89 °FSunny.12 mph34%29.96 "Hg10 mi
3:53 PM90 °FSunny.13 mph29%29.96 "Hg10 mi
2:53 PM90 °FSunny.13 mph31%29.97 "Hg10 mi
1:53 PM88 °FSunny.9 mph39%29.99 "Hg10 mi
12:53 PM83 °FSunny.5 mph50%30.01 "Hg10 mi
11:53 AM77 °FSunny.5 mph60%30.03 "Hg10 mi
10:53 AM71 °FSunny.5 mph71%30.05 "Hg10 mi
9:53 AM63 °FFog.No wind93%30.06 "Hg5 mi
8:53 AM56 °FFog.No wind97%30.05 "Hg1 mi
7:53 AM52 °FFog.No wind93%30.03 "Hg1 mi
6:53 AM57 °FFog.3 mph93%30.02 "Hg1 mi
5:53 AM55 °FFog.No wind93%30.01 "Hg0 mi
5:02 AM56 °FFog.No wind93%30.03 "Hg0 mi
4:53 AM57 °FFog.No wind96%29.99 "Hg1 mi
3:53 AM59 °FFog.5 mph93%29.99 "Hg6 mi
2:53 AM59 °FFog.5 mph93%29.99 "Hg4 mi
1:53 AM59 °FFog.5 mph90%29.99 "Hg6 mi
Weather by CustomWeather, © 2014

See weather overviewHow to use our weather pages